Home > Weather > Memphis > Past weeks

Flag for USA Past Weather in Memphis, Tennessee, USA — Yesterday and Last 2 Weeks

Now
82 °F

Overcast.


Feels Like: 87 °F
Forecast: 75 / 89 °F
Wind: 8 mph from Southwest

Location: Memphis International Airport

Current Time: Jul 29, 2016 at 11:12:37 AM

Latest Report: Jul 29, 2016 at 10:54 AM


Visibility: 10 mi

Pressure: 29.98 "Hg

Humidity: 74%

Dew Point: 73 °F

Location of MemphisLocation

Past Weather in Memphis — Graph

°F

Memphis Temperature Yesterday

Maximum temperature yesterday: 88 °F (at 2:54 PM)
Minimum temperature yesterday: 75 °F (at 3:54 AM)
Average temperature yesterday: 81 °F

High & Low Weather Summary for the Past Weeks

 TemperatureHumidityPressure
High99 °F (Jul 22, 3:54 PM)94% (Jul 28, 3:54 AM)30.22 "Hg (Jul 28, 3:54 AM)
Low73 °F (Jul 14, 10:54 AM)44% (Jul 16, 3:54 PM)29.88 "Hg (Jul 27, 4:54 PM)
Average85 °F70%30.02 "Hg
* Reported Jul 14 9:54 AM — Jul 29 9:54 AM, Memphis, Weather by CustomWeather, © 2016

Note: Actual official high and low records may vary slightly from our data, if they occured in-between our weather recording intervals... More about our weather records

Advertising

Memphis Weather History for the Previous 24 Hours

Scroll right to see more
 ConditionsComfort  
Time TempWeatherWind HumidityBarometerVisibility
9:54 AM
Fri, Jul 29
80 °FOvercast.8 mph76%29.98 "Hg10 mi
8:54 AM79 °FOvercast.7 mph79%29.98 "Hg10 mi
7:54 AM78 °FPartly sunny.10 mph82%29.96 "Hg9 mi
6:54 AM77 °FLow clouds.9 mph85%29.94 "Hg7 mi
5:54 AM77 °FLow clouds.7 mph85%29.95 "Hg8 mi
4:54 AM76 °FLow clouds.9 mph88%29.94 "Hg9 mi
3:54 AM76 °FOvercast.6 mph88%29.95 "Hg9 mi
2:54 AM76 °FLow clouds.7 mph88%29.93 "Hg8 mi
1:54 AM76 °FPassing clouds.3 mph91%29.94 "Hg10 mi
12:54 AM78 °FMostly cloudy.7 mph84%29.95 "Hg10 mi
11:58 PM
Thu, Jul 28
79 °FPassing clouds.7 mph84%29.97 "Hg10 mi
10:54 PM80 °FPassing clouds.8 mph85%29.95 "Hg10 mi
9:54 PM80 °FPartly cloudy.10 mph85%29.94 "Hg10 mi
8:54 PM82 °FMostly cloudy.8 mph82%29.93 "Hg10 mi
7:54 PM83 °FBroken clouds.9 mph77%29.93 "Hg10 mi
6:54 PM84 °FBroken clouds.6 mph74%29.91 "Hg10 mi
5:54 PM86 °FBroken clouds.9 mph70%29.91 "Hg10 mi
4:54 PM87 °FBroken clouds.9 mph69%29.90 "Hg10 mi
3:54 PM87 °FBroken clouds.10 mph69%29.91 "Hg10 mi
2:54 PM88 °FPartly sunny.9 mph70%29.93 "Hg10 mi
1:54 PM86 °FBroken clouds.7 mph70%29.94 "Hg10 mi
12:54 PM85 °FCloudy.9 mph75%29.95 "Hg10 mi
11:54 AM84 °FMostly cloudy.6 mph74%29.96 "Hg10 mi
Weather by CustomWeather, © 2016

See weather overviewHow to use our weather pages